[[{"header":{"parameterUnit":"m.s-1","parameterCategory":1,"la1":30.2991,"la2":30.254,"lo1":-89.0895,"lo2":-89.0444,"dy":0.0017,"dx":0.0017,"nx":28,"ny":28,"refTime":"2025-11-27T03:00:00:Z","depth":0,"parameterNumber":2,"parameterNumberName":"U-component_of_WINDS"},"data":[0,0,0,0,0,0,0,0,0,0,0,0,0,0,0,0,0,0,0,0,0,0,0,0,0,0,0,0,0,0,0,0,0,0,0,0,0,0,0,0,0,0,0,0,0,0,0,0,0,0,0,0,0,0,0,0,0,0,-4.3326,-4.3326,0,-4.3355,-4.3355,-4.3355,-4.3238,-4.3235,-4.3231,-4.3228,-4.3257,-4.3261,-4.3265,0,0,0,0,0,0,0,0,0,0,0,0,0,-4.3169,-4.3172,-4.3326,-4.3326,-4.3327,-4.3355,-4.3355,-4.3355,-4.3239,-4.3234,-4.323,-4.3226,-4.3256,-4.326,-4.3265,0,0,0,0,0,0,0,0,0,0,0,0,0,-4.3221,-4.3173,-4.3326,-4.3272,-4.3267,-4.3355,-4.3355,-4.3356,-4.3239,-4.3234,-4.3229,-4.3224,-4.3254,-4.326,-4.3266,-4.3407,0,0,-4.3284,-4.3287,0,0,0,0,0,0,0,0,-4.3219,-4.3227,-4.3279,-4.3276,-4.3271,-4.3287,-4.331,-4.3373,-4.3241,-4.325,-4.3228,-4.3222,-4.3271,-4.3276,-4.3292,-4.3408,-4.3409,-4.3285,-4.3288,-4.3291,-4.3293,0,0,0,0,0,0,0,-4.3215,-4.3225,-4.3337,-4.328,-4.3275,-4.3246,-4.3247,-4.3322,-4.3289,-4.3249,-4.324,-4.3245,-4.3268,-4.3287,-4.3292,-4.341,-4.3285,-4.329,-4.3294,-4.3296,-4.3642,-4.3647,0,0,0,0,0,0,-4.3219,-4.3223,-4.3336,-4.3338,-4.3231,-4.3253,-4.3255,-4.3287,-4.3288,-4.3283,-4.325,-4.324,-4.3279,-4.3285,-4.3293,-4.3458,-4.3291,-4.3297,-4.33,-4.3637,-4.3643,-4.3649,0,0,0,0,0,0,-4.3216,-4.323,-4.3335,-4.3278,-4.3289,-4.3261,-4.3299,-4.3291,-4.3309,-4.3289,-4.3283,-4.3275,-4.3275,-4.3284,-4.3379,-4.3457,-4.3299,-4.3305,-4.363,-4.3639,-4.3646,-4.379,0,0,0,0,0,0,-4.3212,-4.323,-4.3283,-4.328,-4.3293,-4.3422,-4.3303,-4.3295,-4.332,-4.3307,-4.3311,-4.3307,-4.3272,-4.3371,-4.3385,-4.3463,-4.3309,-4.3623,-4.3634,-4.3644,-4.3778,-4.3802,-4.3823,0,0,0,0,0,-4.3206,-4.3322,-4.3287,-4.3301,-4.336,-4.3427,-4.3434,-4.3392,-4.3327,-4.338,-4.3367,-4.3307,-4.3446,-4.3382,-4.3397,-4.3477,-4.3618,-4.3631,-4.3643,-4.3768,-4.3798,-4.3822,0,0,0,0,0,0,-4.3335,-4.3321,-4.3281,-4.34,-4.3415,-4.3407,-4.3473,-4.3424,-4.3458,-4.3445,-4.3391,-4.3393,-4.3497,-4.3496,-4.3425,-4.3613,-4.3521,-4.3537,-4.3611,-4.3638,-4.366,-4.3659,-4.3314,0,0,0,0,0,-4.3377,-4.3433,-4.3418,-4.3524,-4.3534,-4.3503,-4.353,-4.3496,-4.351,-4.3516,-4.351,-4.3526,-4.3573,-4.3605,-4.3647,-4.3777,-4.3776,-4.3839,-4.3862,-4.388,-4.3895,-4.3964,-4.3992,-4.3691,-4.3691,-4.369,0,0,-4.3465,-4.3464,-4.3503,-4.355,-4.3558,-4.3617,-4.3509,-4.3576,-4.3619,-4.3526,-4.3616,-4.3612,-4.3625,-4.3739,-4.3788,-4.3741,-4.3978,-4.3896,-4.3911,-4.3916,-4.398,-4.4008,-4.4034,-4.3699,-4.3698,-4.3696,0,0,-4.3655,-4.366,-4.3749,-4.376,-4.3773,-4.3751,-4.3773,-4.3772,-4.3766,-4.3855,-4.3786,-4.3836,-4.3919,-4.3932,-4.3949,-4.4143,-4.4089,-4.4158,-4.4276,-4.4343,-4.4367,-4.4388,-4.4458,-4.4484,-4.4173,-4.4174,-4.4174,0,-4.3763,-4.385,-4.3801,-4.3873,-4.3896,-4.3814,-4.3904,-4.3916,-4.3943,-4.396,-4.3907,-4.4009,-4.4012,-4.4127,-4.4175,-4.4191,-4.4214,-4.4159,-4.4368,-4.4388,-4.4407,-4.4473,-4.4499,-4.4182,-4.4181,-4.418,-4.4179,0,-4.3981,-4.4043,-4.4113,-4.4141,-4.4171,-4.4252,-4.4216,-4.4252,-4.4215,-4.4199,-4.429,-4.4291,-4.4332,-4.4356,-4.4321,-4.4467,-4.4437,-4.4377,-4.4283,-4.4445,-4.4506,-4.4531,-4.4194,-4.4191,-4.4189,-4.4187,0,0,-4.4256,-4.4255,-4.4282,-4.4294,-4.4302,-4.4349,-4.4425,-4.4465,-4.4498,-4.4519,-4.4582,-4.4653,-4.4597,-4.4617,-4.4582,-4.4641,-4.4795,-4.4573,-4.4572,-4.4615,-4.4956,-4.5003,-4.5033,-4.4759,-4.4763,-4.4767,-4.4956,0,-4.4443,-4.4575,-4.4533,-4.4666,-4.4722,-4.4644,-4.471,-4.4723,-4.4709,-4.4754,-4.4739,-4.4791,-4.4712,-4.4724,-4.4779,-4.4765,-4.4863,-4.4751,-4.4817,-4.482,-4.4818,-4.5065,-4.5115,-4.5293,-4.4979,-4.4983,-4.4986,0,-4.468,-4.4711,-4.485,-4.4848,-4.487,-4.4931,-4.4965,-4.5008,-4.5021,-4.5006,-4.5029,-4.4981,-4.5055,-4.496,-4.5062,-4.4986,-4.501,-4.5008,-4.5014,-4.5019,-4.4914,-4.5079,-4.5348,-4.5376,-4.5023,-4.502,-4.5018,0,-4.4868,-4.4943,-4.5036,-4.5048,-4.5049,-4.5094,-4.5096,-4.5103,-4.513,-4.5158,-4.5175,-4.5212,-4.5233,-4.5263,-4.5226,-4.516,-4.5334,-4.5235,-4.5325,-4.5326,-4.5366,-4.5365,-4.5645,-4.538,-4.538,-4.5379,-4.5379,0,-4.5083,-4.5171,-4.512,-4.5178,-4.5274,-4.5224,-4.5321,-4.5314,-4.5321,-4.5375,-4.5309,-4.5361,-4.5309,-4.5357,-4.5328,-4.5417,-4.5427,-4.5418,-4.5409,-4.5425,-4.5426,-4.5441,-4.5428,-4.5386,-4.5385,-4.5383,-4.5382,0,-4.531,-4.5279,-4.5375,-4.5368,-4.5368,-4.5439,-4.5432,-4.5485,-4.5466,-4.5536,-4.5549,-4.552,-4.5572,-4.5538,-4.559,-4.5571,-4.5688,-4.5662,-4.5685,-4.5678,-4.577,-4.5762,-4.6071,-4.6109,-4.5819,-4.5822,-4.5824,0,-4.545,-4.5516,-4.5515,-4.5547,-4.5554,-4.5606,-4.5632,-4.5585,-4.5616,-4.5634,-4.5685,-4.5731,-4.5766,-4.5853,-4.5837,-4.5877,-4.5852,-4.5957,-4.5857,-4.587,-4.5854,-4.5852,-4.5858,-4.5978,-4.5981,-4.5984,-4.5986,0,-4.5702,-4.5683,-4.5725,-4.5762,-4.5796,-4.5822,-4.5843,-4.5872,-4.5825,-4.5863,-4.5916,-4.5943,-4.5996,-4.6044,-4.6077,-4.6078,-4.6025,-4.6017,-4.604,-4.6057,-4.6068,-4.6065,-4.5741,-4.6011,-4.6009,-4.6007,-4.6005,-4.6004,-4.589,-4.5945,-4.5954,-4.6002,-4.6013,-4.6034,-4.6083,-4.607,-4.6113,-4.6153,-4.6122,-4.6185,-4.6194,-4.6233,-4.6242,-4.629,-4.6247,-4.628,-4.6289,-4.6298,-4.6311,-4.6059,-4.6295,-4.6295,-4.6294,-4.6293,-4.6293,0,-4.614,-4.6141,-4.6186,-4.6217,-4.6256,-4.6201,-4.6221,-4.6257,-4.6313,-4.6326,-4.6362,-4.6422,-4.6468,-4.6454,-4.6494,-4.6536,-4.6512,-4.6548,-4.6545,-4.6546,-4.6347,-4.6323,-4.6566,-4.6566,-4.6566,-4.6566,-4.6566,-4.6566,-4.6274,-4.6365,-4.6347,-4.6442,-4.6442,-4.6504,-4.652,-4.6539,-4.6549,-4.662,-4.6657,-4.6648,-4.665,-4.669,-4.6729,-4.6723,-4.6742,-4.6787,-4.6773,-4.6587,-4.656,-4.6535,-4.6513,-4.6791,-4.6791,-4.6968,-4.697,-4.6971]},{"header":{"parameterUnit":"m.s-1","parameterCategory":1,"la1":30.2991,"la2":30.254,"lo1":-89.0895,"lo2":-89.0444,"dy":0.0017,"dx":0.0017,"nx":28,"ny":28,"refTime":"2025-11-27T03:00:00:Z","depth":0,"parameterNumber":3,"parameterNumberName":"V-component_of_WINDS"},"data":[0,0,0,0,0,0,0,0,0,0,0,0,0,0,0,0,0,0,0,0,0,0,0,0,0,0,0,0,0,0,0,0,0,0,0,0,0,0,0,0,0,0,0,0,0,0,0,0,0,0,0,0,0,0,0,0,0,0,-5.7862,-5.7862,0,-5.7935,-5.7936,-5.7937,-5.7861,-5.7858,-5.7855,-5.7852,-5.7923,-5.7928,-5.7933,0,0,0,0,0,0,0,0,0,0,0,0,0,-5.765,-5.7654,-5.7861,-5.7862,-5.7863,-5.7935,-5.7936,-5.7937,-5.7862,-5.7858,-5.7854,-5.7851,-5.7922,-5.7927,-5.7933,0,0,0,0,0,0,0,0,0,0,0,0,0,-5.7735,-5.7656,-5.7861,-5.7834,-5.7833,-5.7935,-5.7936,-5.7937,-5.7862,-5.7858,-5.7853,-5.7849,-5.792,-5.7927,-5.7934,-5.8065,0,0,-5.7955,-5.7958,0,0,0,0,0,0,0,0,-5.773,-5.7742,-5.7837,-5.7836,-5.7835,-5.7884,-5.7888,-5.798,-5.7863,-5.7851,-5.7852,-5.7847,-5.7914,-5.7921,-5.7944,-5.8068,-5.8071,-5.7956,-5.796,-5.7963,-5.7965,0,0,0,0,0,0,0,-5.7724,-5.7739,-5.789,-5.7839,-5.7837,-5.7817,-5.7824,-5.7905,-5.7906,-5.7852,-5.7846,-5.7856,-5.7912,-5.7938,-5.7945,-5.8072,-5.7955,-5.7962,-5.7966,-5.7969,-5.8306,-5.831,0,0,0,0,0,0,-5.7722,-5.7734,-5.7888,-5.7893,-5.7771,-5.7824,-5.7832,-5.7873,-5.7905,-5.7906,-5.786,-5.7853,-5.7928,-5.7937,-5.7948,-5.8103,-5.7963,-5.7969,-5.7973,-5.8301,-5.8307,-5.8312,0,0,0,0,0,0,-5.7718,-5.7736,-5.7885,-5.7812,-5.783,-5.7833,-5.7879,-5.7877,-5.7902,-5.7911,-5.7911,-5.7886,-5.7925,-5.7938,-5.8036,-5.8104,-5.7972,-5.7979,-5.8296,-5.8303,-5.831,-5.8415,0,0,0,0,0,0,-5.7712,-5.7735,-5.7787,-5.7814,-5.7834,-5.7975,-5.7883,-5.7881,-5.7915,-5.7906,-5.7936,-5.7937,-5.7923,-5.8026,-5.8043,-5.8111,-5.7984,-5.8289,-5.8299,-5.8307,-5.8405,-5.8425,-5.8441,0,0,0,0,0,-5.7705,-5.7812,-5.779,-5.7808,-5.7898,-5.7979,-5.799,-5.7973,-5.7921,-5.7971,-5.7977,-5.7936,-5.8094,-5.8037,-5.8055,-5.8127,-5.8285,-5.8296,-5.8307,-5.8397,-5.8421,-5.8441,0,0,0,0,0,0,-5.7791,-5.7815,-5.779,-5.791,-5.7943,-5.7966,-5.8029,-5.7998,-5.8045,-5.8035,-5.801,-5.8017,-5.8122,-5.8134,-5.807,-5.8255,-5.8181,-5.8196,-5.8243,-5.8266,-5.8284,-5.8279,-5.799,0,0,0,0,0,-5.7825,-5.789,-5.7906,-5.8011,-5.8028,-5.8026,-5.8061,-5.8045,-5.8077,-5.809,-5.8103,-5.8134,-5.8191,-5.8229,-5.8282,-5.8406,-5.8411,-5.8464,-5.8482,-5.8497,-5.851,-5.8576,-5.86,-5.8348,-5.8348,-5.8347,0,0,-5.7893,-5.7915,-5.7957,-5.8029,-5.8052,-5.8118,-5.8038,-5.8112,-5.816,-5.8101,-5.8195,-5.8205,-5.8239,-5.8351,-5.8401,-5.8364,-5.8581,-5.8511,-5.8522,-5.8528,-5.859,-5.8614,-5.8635,-5.8355,-5.8354,-5.8352,0,0,-5.8053,-5.8076,-5.8166,-5.8191,-5.8228,-5.8226,-5.8247,-5.8275,-5.828,-5.8374,-5.833,-5.8387,-5.8485,-5.8511,-5.8537,-5.8706,-5.8669,-5.8723,-5.8818,-5.8882,-5.8902,-5.892,-5.898,-5.9002,-5.8736,-5.8737,-5.8737,0,-5.8134,-5.8234,-5.8215,-5.8292,-5.8324,-5.8274,-5.8364,-5.8389,-5.8441,-5.8463,-5.8421,-5.8544,-5.8563,-5.868,-5.8721,-5.8744,-5.8767,-5.872,-5.8901,-5.8919,-5.8935,-5.8991,-5.9014,-5.8743,-5.8742,-5.8742,-5.8741,0,-5.8331,-5.8401,-5.8468,-5.8522,-5.8561,-5.8644,-5.8636,-5.8678,-5.8658,-5.866,-5.8756,-5.8777,-5.8833,-5.8859,-5.884,-5.8974,-5.895,-5.8905,-5.883,-5.8965,-5.9018,-5.904,-5.8752,-5.875,-5.8748,-5.8746,0,0,-5.8548,-5.859,-5.8615,-5.8638,-5.8675,-5.8728,-5.8808,-5.8864,-5.89,-5.8937,-5.9003,-5.9087,-5.9046,-5.9075,-5.9059,-5.9115,-5.9248,-5.9064,-5.9064,-5.9097,-5.9395,-5.9429,-5.9455,-5.9223,-5.9227,-5.9231,-5.9392,0,-5.8709,-5.885,-5.8835,-5.8968,-5.9031,-5.8985,-5.9054,-5.9083,-5.9086,-5.9139,-5.9142,-5.9202,-5.9144,-5.9161,-5.9215,-5.922,-5.9307,-5.9208,-5.9283,-5.9286,-5.9277,-5.9482,-5.9518,-5.967,-5.9413,-5.9416,-5.9419,0,-5.8916,-5.8962,-5.9102,-5.9129,-5.9155,-5.9218,-5.9268,-5.932,-5.9351,-5.935,-5.9383,-5.9356,-5.9434,-5.9358,-5.9465,-5.9398,-5.9427,-5.9434,-5.9439,-5.9446,-5.9361,-5.9494,-5.9718,-5.9741,-5.9451,-5.9449,-5.9447,0,-5.906,-5.9157,-5.9253,-5.9275,-5.9309,-5.9354,-5.937,-5.9397,-5.9432,-5.9474,-5.9496,-5.9547,-5.9575,-5.9614,-5.9601,-5.9547,-5.9711,-5.9633,-5.9711,-5.9711,-5.9748,-5.9746,-5.9979,-5.9767,-5.9766,-5.9766,-5.9765,0,-5.9242,-5.9329,-5.9319,-5.9378,-5.9474,-5.9455,-5.955,-5.956,-5.9584,-5.9643,-5.9605,-5.9661,-5.964,-5.9694,-5.9684,-5.9774,-5.9787,-5.9787,-5.9783,-5.979,-5.9791,-5.981,-5.9799,-5.9772,-5.977,-5.9769,-5.9768,0,-5.942,-5.9416,-5.9518,-5.9542,-5.955,-5.962,-5.9639,-5.9694,-5.9694,-5.977,-5.9786,-5.9786,-5.9847,-5.9838,-5.9906,-5.9899,-6.0011,-5.9995,-6.0002,-5.9998,-6.0076,-6.0069,-6.033,-6.0363,-6.0129,-6.0131,-6.0133,0,-5.9536,-5.9602,-5.9634,-5.9672,-5.9691,-5.9752,-5.9787,-5.977,-5.9808,-5.9849,-5.9899,-5.9957,-6.0003,-6.0104,-6.0109,-6.016,-6.0144,-6.0232,-6.0152,-6.0157,-6.0146,-6.0142,-6.0148,-6.0249,-6.0251,-6.0253,-6.0255,0,-5.9743,-5.9738,-5.9791,-5.9844,-5.9888,-5.9929,-5.9965,-5.9997,-5.9983,-6.0028,-6.0091,-6.0127,-6.0197,-6.0255,-6.0304,-6.0318,-6.0284,-6.028,-6.0301,-6.031,-6.0311,-6.0311,-6.0045,-6.0275,-6.0273,-6.0271,-6.027,-6.0269,-5.9893,-5.995,-5.9981,-6.0042,-6.0068,-6.0103,-6.0155,-6.0163,-6.0216,-6.0273,-6.0258,-6.033,-6.0358,-6.042,-6.044,-6.0494,-6.0462,-6.0492,-6.0499,-6.0507,-6.0516,-6.0302,-6.0503,-6.0502,-6.0502,-6.0501,-6.0501,0,-6.0098,-6.0116,-6.0172,-6.0225,-6.0272,-6.0238,-6.0276,-6.0317,-6.0381,-6.0412,-6.0458,-6.053,-6.0587,-6.0596,-6.0649,-6.0691,-6.0677,-6.0705,-6.0702,-6.0706,-6.0542,-6.052,-6.0716,-6.0716,-6.0716,-6.0716,-6.0716,-6.0716,-6.021,-6.0305,-6.0303,-6.041,-6.0426,-6.0497,-6.0522,-6.0553,-6.0577,-6.0661,-6.0708,-6.0714,-6.0735,-6.0789,-6.0839,-6.084,-6.0861,-6.0896,-6.0891,-6.0739,-6.0717,-6.0697,-6.0675,-6.0901,-6.0901,-6.105,-6.1051,-6.1052]}]]